Simultaneous Nadir Overpasses (SNOs) Predictions

Prediction of SNOs between LANDSAT-8 and METOP-B Satellite Orbit:

Table of predicted SNOs for the next 14.0 days since TLE Epoch: 10/17/2015
Index Date (LANDSAT-8) Time (LANDSAT-8) Lat,Lon (LANDSAT-8) SZA (LANDSAT-8 ) Date (METOP-B) Time (METOP-B) Lat,Lon (METOP-B) SZA (METOP-B ) Distance(km) Time Diff (sec)
1 10/17/2015 21:38:07 81.14,-104.27 92.92 10/17/2015 21:36:58 81.15,-104.12 92.91 2.58 69
2 10/17/2015 22:27:33 -81.16, 63.68 87.02 10/17/2015 22:27:37 -81.17, 63.82 87.00 2.50 4
3 10/20/2015 17:12:24 81.14, -37.87 93.95 10/20/2015 17:11:20 81.14, -38.03 93.90 2.82 64
4 10/20/2015 18:01:50 -81.16, 130.10 86.00 10/20/2015 18:01:59 -81.16, 129.93 86.01 3.02 9
5 10/23/2015 12:46:40 81.13, 28.45 94.93 10/23/2015 12:45:40 81.14, 28.40 94.90 0.88 60
6 10/23/2015 13:36:06 -81.15,-163.56 85.01 10/23/2015 13:36:19 -81.16,-163.62 85.01 1.11 13
7 10/26/2015 08:20:56 81.14, 95.04 95.93 10/26/2015 08:20:00 81.15, 95.18 95.93 2.47 56
8 10/26/2015 09:10:22 -81.17, -96.95 84.00 10/26/2015 09:10:39 -81.17, -96.83 83.98 2.14 17
9 10/29/2015 03:55:12 81.15, 161.55 96.90 10/29/2015 03:54:21 81.15, 161.54 96.87 0.14 51




NCC Satellite Simultaneous Nadir Overpasses (SNOs) Prediction Service
